Tracking 31027 objects as of 19-Jul-2025
HD Live streaming from Space Station
objects crossing your sky now

GEOSAT

Track GEOSAT now!
10-day predictions
GEOSAT is classified as:


NORAD ID: 15595
Int'l Code: 1985-021A
Perigee: 765.0 km
Apogee: 768.3 km
Inclination: 108.0 °
Period: 100.0 minutes
Semi major axis: 7137 km
RCS: 9.5926 m2 (large)
Launch date: March 13, 1985
Source: United States (US)
Launch site: AIR FORCE WESTERN TEST RANGE (AFWTR)
Your satellite tracking list
THORAD DELTA 1 DEB
Track 1 satellite(s)




NASA's NSSDC Master Catalog

Two Line Element Set (TLE):
1 15595U 85021A   25199.45849524  .00000065  00000-0  64234-4 0  9992
2 15595 108.0494 106.8834 0002273 282.5431  77.5456 14.39694614114739
Source of the keplerian elements: AFSPC